Year,Month,Day,Hour,Minute,Value (Times are PST for temperature in C)
2016,05,30,00,00,11.20
2016,05,30,00,01,11.20
2016,05,30,00,02,11.10
2016,05,30,00,03,11.10
2016,05,30,00,04,11.10
2016,05,30,00,05,11.10
2016,05,30,00,06,11.00
2016,05,30,00,07,11.00
2016,05,30,00,08,11.00
2016,05,30,00,09,10.90
2016,05,30,00,10,10.90
2016,05,30,00,11,10.90
2016,05,30,00,12,10.80
2016,05,30,00,13,10.80
2016,05,30,00,14,10.80
2016,05,30,00,15,10.70
2016,05,30,00,16,10.70
2016,05,30,00,17,10.70
2016,05,30,00,18,10.70
2016,05,30,00,19,10.70
2016,05,30,00,20,10.70
2016,05,30,00,21,10.70
2016,05,30,00,22,10.70
2016,05,30,00,23,10.70
2016,05,30,00,24,10.70
2016,05,30,00,25,10.70
2016,05,30,00,26,10.70
2016,05,30,00,27,10.70
2016,05,30,00,28,10.70
2016,05,30,00,29,10.70
2016,05,30,00,30,10.70
2016,05,30,00,31,10.70
2016,05,30,00,32,10.70
2016,05,30,00,33,10.70
2016,05,30,00,34,10.70
2016,05,30,00,35,10.70
2016,05,30,00,36,10.70
2016,05,30,00,37,10.60
2016,05,30,00,38,10.60
2016,05,30,00,39,10.60
2016,05,30,00,40,10.50
2016,05,30,00,41,10.50
2016,05,30,00,42,10.50
2016,05,30,00,43,10.50
2016,05,30,00,44,10.40
2016,05,30,00,45,10.40
2016,05,30,00,46,10.40
2016,05,30,00,47,10.40
2016,05,30,00,48,10.40
2016,05,30,00,49,10.40
2016,05,30,00,50,10.30
2016,05,30,00,51,10.30
2016,05,30,00,52,10.30
2016,05,30,00,53,10.30
2016,05,30,00,54,10.30
2016,05,30,00,55,10.20
2016,05,30,00,56,10.20
2016,05,30,00,57,10.20
2016,05,30,00,58,10.20
2016,05,30,00,59,10.20
2016,05,30,01,00,10.10
2016,05,30,01,01,10.10
2016,05,30,01,02,10.10
2016,05,30,01,03,10.10
2016,05,30,01,04,10.00
2016,05,30,01,05,10.00
2016,05,30,01,06,10.00
2016,05,30,01,07,9.90
2016,05,30,01,08,9.90
2016,05,30,01,09,9.90
2016,05,30,01,10,9.90
2016,05,30,01,11,9.90
2016,05,30,01,12,9.90
2016,05,30,01,13,9.90
2016,05,30,01,14,9.90
2016,05,30,01,15,9.90
2016,05,30,01,16,10.00
2016,05,30,01,17,10.00
2016,05,30,01,18,10.00
2016,05,30,01,19,10.00
2016,05,30,01,20,10.00
2016,05,30,01,21,10.00
2016,05,30,01,22,10.10
2016,05,30,01,23,10.10
2016,05,30,01,24,10.10
2016,05,30,01,25,10.10
2016,05,30,01,26,10.10
2016,05,30,01,27,10.20
2016,05,30,01,28,10.20
2016,05,30,01,29,10.20
2016,05,30,01,30,10.20
2016,05,30,01,31,10.20
2016,05,30,01,32,10.20
2016,05,30,01,33,10.20
2016,05,30,01,34,10.20
2016,05,30,01,35,10.10
2016,05,30,01,36,10.10
2016,05,30,01,37,10.10
2016,05,30,01,38,10.10
2016,05,30,01,39,10.10
2016,05,30,01,40,10.10
2016,05,30,01,41,10.10
2016,05,30,01,42,10.10
2016,05,30,01,43,10.10
2016,05,30,01,44,10.10
2016,05,30,01,45,10.10
2016,05,30,01,46,10.10
2016,05,30,01,47,10.10
2016,05,30,01,48,10.10
2016,05,30,01,49,10.10
2016,05,30,01,50,10.10
2016,05,30,01,51,10.20
2016,05,30,01,52,10.10
2016,05,30,01,53,10.10
2016,05,30,01,54,10.10
2016,05,30,01,55,10.00
2016,05,30,01,56,10.00
2016,05,30,01,57,9.90
2016,05,30,01,58,9.90
2016,05,30,01,59,9.80
2016,05,30,02,00,9.80
2016,05,30,02,01,9.80
2016,05,30,02,02,9.70
2016,05,30,02,03,9.70
2016,05,30,02,04,9.70
2016,05,30,02,05,9.60
2016,05,30,02,06,9.60
2016,05,30,02,07,9.60
2016,05,30,02,08,9.60
2016,05,30,02,09,9.50
2016,05,30,02,10,9.50
2016,05,30,02,11,9.40
2016,05,30,02,12,9.40
2016,05,30,02,13,9.40
2016,05,30,02,14,9.40
2016,05,30,02,15,9.40
2016,05,30,02,16,9.40
2016,05,30,02,17,9.50
2016,05,30,02,18,9.50
2016,05,30,02,19,9.50
2016,05,30,02,20,9.50
2016,05,30,02,21,9.60
2016,05,30,02,22,9.60
2016,05,30,02,23,9.60
2016,05,30,02,24,9.60
2016,05,30,02,25,9.60
2016,05,30,02,26,9.70
2016,05,30,02,27,9.70
2016,05,30,02,28,9.70
2016,05,30,02,29,9.70
2016,05,30,02,30,9.70
2016,05,30,02,31,9.70
2016,05,30,02,32,9.70
2016,05,30,02,33,9.60
2016,05,30,02,34,9.60
2016,05,30,02,35,9.60
2016,05,30,02,36,9.60
2016,05,30,02,37,9.60
2016,05,30,02,38,9.60
2016,05,30,02,39,9.60
2016,05,30,02,40,9.60
2016,05,30,02,41,9.60
2016,05,30,02,42,9.60
2016,05,30,02,43,9.50
2016,05,30,02,44,9.50
2016,05,30,02,45,9.50
2016,05,30,02,46,9.40
2016,05,30,02,47,9.40
2016,05,30,02,48,9.40
2016,05,30,02,49,9.40
2016,05,30,02,50,9.40
2016,05,30,02,51,9.40
2016,05,30,02,52,9.40
2016,05,30,02,53,9.30
2016,05,30,02,54,9.30
2016,05,30,02,55,9.30
2016,05,30,02,56,9.30
2016,05,30,02,57,9.30
2016,05,30,02,58,9.30
2016,05,30,02,59,9.20
2016,05,30,03,00,9.20
2016,05,30,03,01,9.20
2016,05,30,03,02,9.10
2016,05,30,03,03,9.10
2016,05,30,03,04,9.00
2016,05,30,03,05,9.00
2016,05,30,03,06,9.00
2016,05,30,03,07,8.90
2016,05,30,03,08,8.90
2016,05,30,03,09,8.90
2016,05,30,03,10,8.80
2016,05,30,03,11,8.80
2016,05,30,03,12,8.80
2016,05,30,03,13,8.80
2016,05,30,03,14,8.80
2016,05,30,03,15,8.70
2016,05,30,03,16,8.70
2016,05,30,03,17,8.70
2016,05,30,03,18,8.60
2016,05,30,03,19,8.60
2016,05,30,03,20,8.60
2016,05,30,03,21,8.50
2016,05,30,03,22,8.50
2016,05,30,03,23,8.40
2016,05,30,03,24,8.40
2016,05,30,03,25,8.40
2016,05,30,03,26,8.30
2016,05,30,03,27,8.30
2016,05,30,03,28,8.30
2016,05,30,03,29,8.20
2016,05,30,03,30,8.20
2016,05,30,03,31,8.20
2016,05,30,03,32,8.30
2016,05,30,03,33,8.30
2016,05,30,03,34,8.30
2016,05,30,03,35,8.20
2016,05,30,03,36,8.20
2016,05,30,03,37,8.20
2016,05,30,03,38,8.20
2016,05,30,03,39,8.20
2016,05,30,03,40,8.10
2016,05,30,03,41,8.10
2016,05,30,03,42,8.00
2016,05,30,03,43,8.00
2016,05,30,03,44,7.90
2016,05,30,03,45,7.90
2016,05,30,03,46,7.90
2016,05,30,03,47,7.90
2016,05,30,03,48,7.90
2016,05,30,03,49,7.80
2016,05,30,03,50,7.80
2016,05,30,03,51,7.80
2016,05,30,03,52,7.80
2016,05,30,03,53,7.80
2016,05,30,03,54,7.80
2016,05,30,03,55,7.80
2016,05,30,03,56,7.80
2016,05,30,03,57,7.80
2016,05,30,03,58,7.80
2016,05,30,03,59,7.70
2016,05,30,04,00,7.70
2016,05,30,04,01,7.70
2016,05,30,04,02,7.70
2016,05,30,04,03,7.70
2016,05,30,04,04,7.70
2016,05,30,04,05,7.70
2016,05,30,04,06,7.70
2016,05,30,04,07,7.70
2016,05,30,04,08,7.60
2016,05,30,04,09,7.60
2016,05,30,04,10,7.60
2016,05,30,04,11,7.60
2016,05,30,04,12,7.60
2016,05,30,04,13,7.60
2016,05,30,04,14,7.50
2016,05,30,04,15,7.50
2016,05,30,04,16,7.50
2016,05,30,04,17,7.50
2016,05,30,04,18,7.50
2016,05,30,04,19,7.40
2016,05,30,04,20,7.40
2016,05,30,04,21,7.40
2016,05,30,04,22,7.40
2016,05,30,04,23,7.40
2016,05,30,04,24,7.40
2016,05,30,04,25,7.40
2016,05,30,04,26,7.40
2016,05,30,04,27,7.40
2016,05,30,04,28,7.40
2016,05,30,04,29,7.40
2016,05,30,04,30,7.40
2016,05,30,04,31,7.30
2016,05,30,04,32,7.30
2016,05,30,04,33,7.30
2016,05,30,04,34,7.30
2016,05,30,04,35,7.30
2016,05,30,04,36,7.30
2016,05,30,04,37,7.30
2016,05,30,04,38,7.30
2016,05,30,04,39,7.30
2016,05,30,04,40,7.30
2016,05,30,04,41,7.30
2016,05,30,04,42,7.30
2016,05,30,04,43,7.20
2016,05,30,04,44,7.20
2016,05,30,04,45,7.20
2016,05,30,04,46,7.20
2016,05,30,04,47,7.20
2016,05,30,04,48,7.20
2016,05,30,04,49,7.20
2016,05,30,04,50,7.20
2016,05,30,04,51,7.20
2016,05,30,04,52,7.20
2016,05,30,04,53,7.20
2016,05,30,04,54,7.20
2016,05,30,04,55,7.20
2016,05,30,04,56,7.20
2016,05,30,04,57,7.20
2016,05,30,04,58,7.20
2016,05,30,04,59,7.20
2016,05,30,05,00,7.20
2016,05,30,05,01,7.20
2016,05,30,05,02,7.20
2016,05,30,05,03,7.20
2016,05,30,05,04,7.20
2016,05,30,05,05,7.20
2016,05,30,05,06,7.20
2016,05,30,05,07,7.20
2016,05,30,05,08,7.20
2016,05,30,05,09,7.20
2016,05,30,05,10,7.10
2016,05,30,05,11,7.20
2016,05,30,05,12,7.10
2016,05,30,05,13,7.10
2016,05,30,05,14,7.10
2016,05,30,05,15,7.10
2016,05,30,05,16,7.10
2016,05,30,05,17,7.10
2016,05,30,05,18,7.10
2016,05,30,05,19,7.10
2016,05,30,05,20,7.10
2016,05,30,05,21,7.10
2016,05,30,05,22,7.10
2016,05,30,05,23,7.10
2016,05,30,05,24,7.00
2016,05,30,05,25,7.00
2016,05,30,05,26,7.00
2016,05,30,05,27,7.00
2016,05,30,05,28,7.00
2016,05,30,05,29,7.00
2016,05,30,05,30,7.00
2016,05,30,05,31,6.90
2016,05,30,05,32,6.90
2016,05,30,05,33,6.90
2016,05,30,05,34,6.90
2016,05,30,05,35,6.90
2016,05,30,05,36,6.90
2016,05,30,05,37,6.90
2016,05,30,05,38,6.90
2016,05,30,05,39,6.90
2016,05,30,05,40,6.90
2016,05,30,05,41,6.90
2016,05,30,05,42,6.90
2016,05,30,05,43,6.90
2016,05,30,05,44,6.90
2016,05,30,05,45,6.90
2016,05,30,05,46,6.90
2016,05,30,05,47,6.90
2016,05,30,05,48,6.90
2016,05,30,05,49,6.90
2016,05,30,05,50,6.90
2016,05,30,05,51,6.80
2016,05,30,05,52,6.80
2016,05,30,05,53,6.80
2016,05,30,05,54,6.90
2016,05,30,05,55,6.90
2016,05,30,05,56,6.90
2016,05,30,05,57,6.90
2016,05,30,05,58,6.90
2016,05,30,05,59,6.90
2016,05,30,06,00,6.90
2016,05,30,06,01,6.90
2016,05,30,06,02,6.90
2016,05,30,06,03,6.90
2016,05,30,06,04,6.90
2016,05,30,06,05,6.90
2016,05,30,06,06,6.90
2016,05,30,06,07,6.90
2016,05,30,06,08,6.90
2016,05,30,06,09,6.90
2016,05,30,06,10,6.90
2016,05,30,06,11,6.90
2016,05,30,06,12,6.90
2016,05,30,06,13,6.90
2016,05,30,06,14,6.90
2016,05,30,06,15,6.90
2016,05,30,06,16,6.90
2016,05,30,06,17,6.90
2016,05,30,06,18,6.90
2016,05,30,06,19,7.00
2016,05,30,06,20,7.00
2016,05,30,06,21,7.10
2016,05,30,06,22,7.10
2016,05,30,06,23,7.10
2016,05,30,06,24,7.20
2016,05,30,06,25,7.20
2016,05,30,06,26,7.20
2016,05,30,06,27,7.20
2016,05,30,06,28,7.20
2016,05,30,06,29,7.30
2016,05,30,06,30,7.30
2016,05,30,06,31,7.30
2016,05,30,06,32,7.30
2016,05,30,06,33,7.30
2016,05,30,06,34,7.40
2016,05,30,06,35,7.40
2016,05,30,06,36,7.50
2016,05,30,06,37,7.50
2016,05,30,06,38,7.50
2016,05,30,06,39,7.60
2016,05,30,06,40,7.60
2016,05,30,06,41,7.60
2016,05,30,06,42,7.70
2016,05,30,06,43,7.70
2016,05,30,06,44,7.70
2016,05,30,06,45,7.80
2016,05,30,06,46,7.80
2016,05,30,06,47,7.80
2016,05,30,06,48,7.90
2016,05,30,06,49,8.00
2016,05,30,06,50,8.00
2016,05,30,06,51,8.10
2016,05,30,06,52,8.20
2016,05,30,06,53,8.30
2016,05,30,06,54,8.30
2016,05,30,06,55,8.40
2016,05,30,06,56,8.50
2016,05,30,06,57,8.50
2016,05,30,06,58,8.60
2016,05,30,06,59,8.70
2016,05,30,07,00,8.70
2016,05,30,07,01,8.80
2016,05,30,07,02,8.90
2016,05,30,07,03,9.00
2016,05,30,07,04,9.00
2016,05,30,07,05,9.10
2016,05,30,07,06,9.20
2016,05,30,07,07,9.30
2016,05,30,07,08,9.40
2016,05,30,07,09,9.50
2016,05,30,07,10,9.60
2016,05,30,07,11,9.70
2016,05,30,07,12,9.80
2016,05,30,07,13,9.80
2016,05,30,07,14,9.90
2016,05,30,07,15,10.00
2016,05,30,07,16,10.10
2016,05,30,07,17,10.10
2016,05,30,07,18,10.20
2016,05,30,07,19,10.30
2016,05,30,07,20,10.40
2016,05,30,07,21,10.50
2016,05,30,07,22,10.60
2016,05,30,07,23,10.70
2016,05,30,07,24,10.70
2016,05,30,07,25,10.80
2016,05,30,07,26,10.90
2016,05,30,07,27,11.00
2016,05,30,07,28,11.10
2016,05,30,07,29,11.20
2016,05,30,07,30,11.20
2016,05,30,07,31,11.30
2016,05,30,07,32,11.40
2016,05,30,07,33,11.50
2016,05,30,07,34,11.60
2016,05,30,07,35,11.60
2016,05,30,07,36,11.70
2016,05,30,07,37,11.70
2016,05,30,07,38,11.80
2016,05,30,07,39,11.80
2016,05,30,07,40,11.90
2016,05,30,07,41,11.90
2016,05,30,07,42,11.90
2016,05,30,07,43,11.90
2016,05,30,07,44,11.90
2016,05,30,07,45,12.00
2016,05,30,07,46,12.00
2016,05,30,07,47,11.90
2016,05,30,07,48,11.90
2016,05,30,07,49,11.90
2016,05,30,07,50,11.90
2016,05,30,07,51,11.90
2016,05,30,07,52,11.90
2016,05,30,07,53,11.90
2016,05,30,07,54,11.80
2016,05,30,07,55,11.80
2016,05,30,07,56,11.80
2016,05,30,07,57,11.80
2016,05,30,07,58,11.80
2016,05,30,07,59,11.70
2016,05,30,08,00,11.70
2016,05,30,08,01,11.70
2016,05,30,08,02,11.70
2016,05,30,08,03,11.70
2016,05,30,08,04,11.70
2016,05,30,08,05,11.70
2016,05,30,08,06,11.70
2016,05,30,08,07,11.70
2016,05,30,08,08,11.70
2016,05,30,08,09,11.70
2016,05,30,08,10,11.70
2016,05,30,08,11,11.70
2016,05,30,08,12,11.70
2016,05,30,08,13,11.80
2016,05,30,08,14,11.80
2016,05,30,08,15,11.80
2016,05,30,08,16,11.80
2016,05,30,08,17,11.80
2016,05,30,08,18,11.80
2016,05,30,08,19,11.90
2016,05,30,08,20,11.90
2016,05,30,08,21,11.90
2016,05,30,08,22,12.00
2016,05,30,08,23,12.00
2016,05,30,08,24,12.10
2016,05,30,08,25,12.10
2016,05,30,08,26,12.10
2016,05,30,08,27,12.20
2016,05,30,08,28,12.20
2016,05,30,08,29,12.30
2016,05,30,08,30,12.30
2016,05,30,08,31,12.30
2016,05,30,08,32,12.40
2016,05,30,08,33,12.40
2016,05,30,08,34,12.50
2016,05,30,08,35,12.50
2016,05,30,08,36,12.60
2016,05,30,08,37,12.60
2016,05,30,08,38,12.70
2016,05,30,08,39,12.70
2016,05,30,08,40,12.70
2016,05,30,08,41,12.80
2016,05,30,08,42,12.80
2016,05,30,08,43,12.80
2016,05,30,08,44,12.80
2016,05,30,08,45,12.80
2016,05,30,08,46,12.80
2016,05,30,08,47,12.80
2016,05,30,08,48,12.90
2016,05,30,08,49,12.90
2016,05,30,08,50,13.00
2016,05,30,08,51,13.00
2016,05,30,08,52,13.10
2016,05,30,08,53,13.10
2016,05,30,08,54,13.20
2016,05,30,08,55,13.20
2016,05,30,08,56,13.20
2016,05,30,08,57,13.30
2016,05,30,08,58,13.30
2016,05,30,08,59,13.30
2016,05,30,09,00,13.30
2016,05,30,09,01,13.40
2016,05,30,09,02,13.40
2016,05,30,09,03,13.40
2016,05,30,09,04,13.50
2016,05,30,09,05,13.50
2016,05,30,09,06,13.60
2016,05,30,09,07,13.60
2016,05,30,09,08,13.70
2016,05,30,09,09,13.70
2016,05,30,09,10,13.70
2016,05,30,09,11,13.70
2016,05,30,09,12,13.70
2016,05,30,09,13,13.70
2016,05,30,09,14,13.70
2016,05,30,09,15,13.70
2016,05,30,09,16,13.70
2016,05,30,09,17,13.70
2016,05,30,09,18,13.80
2016,05,30,09,19,13.80
2016,05,30,09,20,13.90
2016,05,30,09,21,14.00
2016,05,30,09,22,14.00
2016,05,30,09,23,14.10
2016,05,30,09,24,14.20
2016,05,30,09,25,14.30
2016,05,30,09,26,14.50
2016,05,30,09,27,14.50
2016,05,30,09,28,14.60
2016,05,30,09,29,14.70
2016,05,30,09,30,14.80
2016,05,30,09,31,14.90
2016,05,30,09,32,14.90
2016,05,30,09,33,14.90
2016,05,30,09,34,14.80
2016,05,30,09,35,14.80
2016,05,30,09,36,14.80
2016,05,30,09,37,14.80
2016,05,30,09,38,14.80
2016,05,30,09,39,14.90
2016,05,30,09,40,14.90
2016,05,30,09,41,15.00
2016,05,30,09,42,15.00
2016,05,30,09,43,15.00
2016,05,30,09,44,15.00
2016,05,30,09,45,15.00
2016,05,30,09,46,15.00
2016,05,30,09,47,15.00
2016,05,30,09,48,15.00
2016,05,30,09,49,15.00
2016,05,30,09,50,15.00
2016,05,30,09,51,14.90
2016,05,30,09,52,14.90
2016,05,30,09,53,14.80
2016,05,30,09,54,14.80
2016,05,30,09,55,14.90
2016,05,30,09,56,14.80
2016,05,30,09,57,14.80
2016,05,30,09,58,14.80
2016,05,30,09,59,14.80
2016,05,30,10,00,14.80
2016,05,30,10,01,14.80
2016,05,30,10,02,14.80
2016,05,30,10,03,14.80
2016,05,30,10,04,14.80
2016,05,30,10,05,14.80
2016,05,30,10,06,15.00
2016,05,30,10,07,15.10
2016,05,30,10,08,15.20
2016,05,30,10,09,15.20
2016,05,30,10,10,15.30
2016,05,30,10,11,15.30
2016,05,30,10,12,15.40
2016,05,30,10,13,15.50
2016,05,30,10,14,15.60
2016,05,30,10,15,15.70
2016,05,30,10,16,15.70
2016,05,30,10,17,15.70
2016,05,30,10,18,15.60
2016,05,30,10,19,15.60
2016,05,30,10,20,15.50
2016,05,30,10,21,15.50
2016,05,30,10,22,15.60
2016,05,30,10,23,15.60
2016,05,30,10,24,15.70
2016,05,30,10,25,15.80
2016,05,30,10,26,15.90
2016,05,30,10,27,15.90
2016,05,30,10,28,15.90
2016,05,30,10,29,16.00
2016,05,30,10,30,16.00
2016,05,30,10,31,16.00
2016,05,30,10,32,16.00
2016,05,30,10,33,16.00
2016,05,30,10,34,16.10
2016,05,30,10,35,16.10
2016,05,30,10,36,16.10
2016,05,30,10,37,16.10
2016,05,30,10,38,16.10
2016,05,30,10,39,16.10
2016,05,30,10,40,16.10
2016,05,30,10,41,16.10
2016,05,30,10,42,16.10
2016,05,30,10,43,16.10
2016,05,30,10,44,16.10
2016,05,30,10,45,16.20
2016,05,30,10,46,16.20
2016,05,30,10,47,16.20
2016,05,30,10,48,16.30
2016,05,30,10,49,16.30
2016,05,30,10,50,16.30
2016,05,30,10,51,16.30
2016,05,30,10,52,16.40
2016,05,30,10,53,16.40
2016,05,30,10,54,16.50
2016,05,30,10,55,16.60
2016,05,30,10,56,16.60
2016,05,30,10,57,16.60
2016,05,30,10,58,16.60
2016,05,30,10,59,16.70
2016,05,30,11,00,16.70
2016,05,30,11,01,16.80
2016,05,30,11,02,16.80
2016,05,30,11,03,16.90
2016,05,30,11,04,16.90
2016,05,30,11,05,17.00
2016,05,30,11,06,17.10
2016,05,30,11,07,17.10
2016,05,30,11,08,17.20
2016,05,30,11,09,17.20
2016,05,30,11,10,17.20
2016,05,30,11,11,17.20
2016,05,30,11,12,17.20
2016,05,30,11,13,17.20
2016,05,30,11,14,17.30
2016,05,30,11,15,17.30
2016,05,30,11,16,17.40
2016,05,30,11,17,17.40
2016,05,30,11,18,17.40
2016,05,30,11,19,17.40
2016,05,30,11,20,17.40
2016,05,30,11,21,17.40
2016,05,30,11,22,17.40
2016,05,30,11,23,17.40
2016,05,30,11,24,17.40
2016,05,30,11,25,17.40
2016,05,30,11,26,17.40
2016,05,30,11,27,17.30
2016,05,30,11,28,17.30
2016,05,30,11,29,17.30
2016,05,30,11,30,17.30
2016,05,30,11,31,17.30
2016,05,30,11,32,17.30
2016,05,30,11,33,17.30
2016,05,30,11,34,17.30
2016,05,30,11,35,17.30
2016,05,30,11,36,17.30
2016,05,30,11,37,17.40
2016,05,30,11,38,17.40
2016,05,30,11,39,17.30
2016,05,30,11,40,17.30
2016,05,30,11,41,17.30
2016,05,30,11,42,17.30
2016,05,30,11,43,17.40
2016,05,30,11,44,17.40
2016,05,30,11,45,17.40
2016,05,30,11,46,17.40
2016,05,30,11,47,17.30
2016,05,30,11,48,17.40
2016,05,30,11,49,17.30
2016,05,30,11,50,17.30
2016,05,30,11,51,17.30
2016,05,30,11,52,17.30
2016,05,30,11,53,17.30
2016,05,30,11,54,17.30
2016,05,30,11,55,17.40
2016,05,30,11,56,17.40
2016,05,30,11,57,17.40
2016,05,30,11,58,17.40
2016,05,30,11,59,17.50
2016,05,30,12,00,17.50
2016,05,30,12,01,17.60
2016,05,30,12,02,17.70
2016,05,30,12,03,17.70
2016,05,30,12,04,17.80
2016,05,30,12,05,17.80
2016,05,30,12,06,17.70
2016,05,30,12,07,17.70
2016,05,30,12,08,17.70
2016,05,30,12,09,17.70
2016,05,30,12,10,17.80
2016,05,30,12,11,17.80
2016,05,30,12,12,17.80
2016,05,30,12,13,17.80
2016,05,30,12,14,17.90
2016,05,30,12,15,17.90
2016,05,30,12,16,17.90
2016,05,30,12,17,17.80
2016,05,30,12,18,17.80
2016,05,30,12,19,17.80
2016,05,30,12,20,17.80
2016,05,30,12,21,17.80
2016,05,30,12,22,17.70
2016,05,30,12,23,17.70
2016,05,30,12,24,17.70
2016,05,30,12,25,17.70
2016,05,30,12,26,17.60
2016,05,30,12,27,17.60
2016,05,30,12,28,17.60
2016,05,30,12,29,17.60
2016,05,30,12,30,17.60
2016,05,30,12,31,17.60
2016,05,30,12,32,17.70
2016,05,30,12,33,17.70
2016,05,30,12,34,17.70
2016,05,30,12,35,17.70
2016,05,30,12,36,17.70
2016,05,30,12,37,17.60
2016,05,30,12,38,17.60
2016,05,30,12,39,17.60
2016,05,30,12,40,17.60
2016,05,30,12,41,17.60
2016,05,30,12,42,17.60
2016,05,30,12,43,17.60
2016,05,30,12,44,17.60
2016,05,30,12,45,17.70
2016,05,30,12,46,17.70
2016,05,30,12,47,17.70
2016,05,30,12,48,17.70
2016,05,30,12,49,17.80
2016,05,30,12,50,17.80
2016,05,30,12,51,17.80
2016,05,30,12,52,17.90
2016,05,30,12,53,18.00
2016,05,30,12,54,18.00
2016,05,30,12,55,18.10
2016,05,30,12,56,18.10
2016,05,30,12,57,18.20
2016,05,30,12,58,18.20
2016,05,30,12,59,18.20
2016,05,30,13,00,18.20
2016,05,30,13,01,18.30
2016,05,30,13,02,18.30
2016,05,30,13,03,18.30
2016,05,30,13,04,18.40
2016,05,30,13,05,18.40
2016,05,30,13,06,18.40
2016,05,30,13,07,18.40
2016,05,30,13,08,18.40
2016,05,30,13,09,18.50
2016,05,30,13,10,18.50
2016,05,30,13,11,18.60
2016,05,30,13,12,18.60
2016,05,30,13,13,18.60
2016,05,30,13,14,18.60
2016,05,30,13,15,18.60
2016,05,30,13,16,18.60
2016,05,30,13,17,18.60
2016,05,30,13,18,18.60
2016,05,30,13,19,18.60
2016,05,30,13,20,18.70
2016,05,30,13,21,18.60
2016,05,30,13,22,18.60
2016,05,30,13,23,18.60
2016,05,30,13,24,18.60
2016,05,30,13,25,18.60
2016,05,30,13,26,18.50
2016,05,30,13,27,18.50
2016,05,30,13,28,18.50
2016,05,30,13,29,18.60
2016,05,30,13,30,18.70
2016,05,30,13,31,18.70
2016,05,30,13,32,18.80
2016,05,30,13,33,18.80
2016,05,30,13,34,18.80
2016,05,30,13,35,18.80
2016,05,30,13,36,18.80
2016,05,30,13,37,18.80
2016,05,30,13,38,18.80
2016,05,30,13,39,18.90
2016,05,30,13,40,18.90
2016,05,30,13,41,18.90
2016,05,30,13,42,18.90
2016,05,30,13,43,18.90
2016,05,30,13,44,19.00
2016,05,30,13,45,19.00
2016,05,30,13,46,19.10
2016,05,30,13,47,19.10
2016,05,30,13,48,19.10
2016,05,30,13,49,19.10
2016,05,30,13,50,19.10
2016,05,30,13,51,19.20
2016,05,30,13,52,19.20
2016,05,30,13,53,19.30
2016,05,30,13,54,19.30
2016,05,30,13,55,19.30
2016,05,30,13,56,19.30
2016,05,30,13,57,19.30
2016,05,30,13,58,19.30
2016,05,30,13,59,19.30
2016,05,30,14,00,19.30
2016,05,30,14,01,19.30
2016,05,30,14,02,19.30
2016,05,30,14,03,19.30
2016,05,30,14,04,19.30
2016,05,30,14,05,19.30
2016,05,30,14,06,19.30
2016,05,30,14,07,19.30
2016,05,30,14,08,19.40
2016,05,30,14,09,19.40
2016,05,30,14,10,19.50
2016,05,30,14,11,19.50
2016,05,30,14,12,19.50
2016,05,30,14,13,19.50
2016,05,30,14,14,19.50
2016,05,30,14,15,19.50
2016,05,30,14,16,19.50
2016,05,30,14,17,19.50
2016,05,30,14,18,19.50
2016,05,30,14,19,19.60
2016,05,30,14,20,19.70
2016,05,30,14,21,19.70
2016,05,30,14,22,19.70
2016,05,30,14,23,19.70
2016,05,30,14,24,19.70
2016,05,30,14,25,19.70
2016,05,30,14,26,19.80
2016,05,30,14,27,19.80
2016,05,30,14,28,19.80
2016,05,30,14,29,19.90
2016,05,30,14,30,19.90
2016,05,30,14,31,19.90
2016,05,30,14,32,20.00
2016,05,30,14,33,20.00
2016,05,30,14,34,20.00
2016,05,30,14,35,20.00
2016,05,30,14,36,19.90
2016,05,30,14,37,19.90
2016,05,30,14,38,19.80
2016,05,30,14,39,19.80
2016,05,30,14,40,19.80
2016,05,30,14,41,19.80
2016,05,30,14,42,19.80
2016,05,30,14,43,19.80
2016,05,30,14,44,19.80
2016,05,30,14,45,19.70
2016,05,30,14,46,19.60
2016,05,30,14,47,19.60
2016,05,30,14,48,19.60
2016,05,30,14,49,19.60
2016,05,30,14,50,19.70
2016,05,30,14,51,19.70
2016,05,30,14,52,19.70
2016,05,30,14,53,19.70
2016,05,30,14,54,19.70
2016,05,30,14,55,19.80
2016,05,30,14,56,19.80
2016,05,30,14,57,19.80
2016,05,30,14,58,19.70
2016,05,30,14,59,19.70
2016,05,30,15,00,19.70
2016,05,30,15,01,19.70
2016,05,30,15,02,19.80
2016,05,30,15,03,19.80
2016,05,30,15,04,19.80
2016,05,30,15,05,19.80
2016,05,30,15,06,19.80
2016,05,30,15,07,19.80
2016,05,30,15,08,19.80
2016,05,30,15,09,19.80
2016,05,30,15,10,19.80
2016,05,30,15,11,19.90
2016,05,30,15,12,19.90
2016,05,30,15,13,19.90
2016,05,30,15,14,20.00
2016,05,30,15,15,19.90
2016,05,30,15,16,19.90
2016,05,30,15,17,19.90
2016,05,30,15,18,19.90
2016,05,30,15,19,19.80
2016,05,30,15,20,19.80
2016,05,30,15,21,19.80
2016,05,30,15,22,19.80
2016,05,30,15,23,19.80
2016,05,30,15,24,19.80
2016,05,30,15,25,19.90
2016,05,30,15,26,19.90
2016,05,30,15,27,19.90
2016,05,30,15,28,19.90
2016,05,30,15,29,19.90
2016,05,30,15,30,19.90
2016,05,30,15,31,19.80
2016,05,30,15,32,19.80
2016,05,30,15,33,19.70
2016,05,30,15,34,19.70
2016,05,30,15,35,19.70
2016,05,30,15,36,19.70
2016,05,30,15,37,19.70
2016,05,30,15,38,19.70
2016,05,30,15,39,19.70
2016,05,30,15,40,19.70
2016,05,30,15,41,19.70
2016,05,30,15,42,19.70
2016,05,30,15,43,19.70
2016,05,30,15,44,19.70
2016,05,30,15,45,19.80
2016,05,30,15,46,19.80
2016,05,30,15,47,19.80
2016,05,30,15,48,19.80
2016,05,30,15,49,19.80
2016,05,30,15,50,19.80
2016,05,30,15,51,19.80
2016,05,30,15,52,19.90
2016,05,30,15,53,20.00
2016,05,30,15,54,20.00
2016,05,30,15,55,20.10
2016,05,30,15,56,20.10
2016,05,30,15,57,20.20
2016,05,30,15,58,20.20
2016,05,30,15,59,20.20
2016,05,30,16,00,20.20
2016,05,30,16,01,20.20
2016,05,30,16,02,20.30
2016,05,30,16,03,20.20
2016,05,30,16,04,20.20
2016,05,30,16,05,20.20
2016,05,30,16,06,20.10
2016,05,30,16,07,20.10
2016,05,30,16,08,20.10
2016,05,30,16,09,20.10
2016,05,30,16,10,20.10
2016,05,30,16,11,20.10
2016,05,30,16,12,20.10
2016,05,30,16,13,20.20
2016,05,30,16,14,20.20
2016,05,30,16,15,20.30
2016,05,30,16,16,20.30
2016,05,30,16,17,20.30
2016,05,30,16,18,20.40
2016,05,30,16,19,20.40
2016,05,30,16,20,20.50
2016,05,30,16,21,20.60
2016,05,30,16,22,20.60
2016,05,30,16,23,20.60
2016,05,30,16,24,20.60
2016,05,30,16,25,20.60
2016,05,30,16,26,20.60
2016,05,30,16,27,20.60
2016,05,30,16,28,20.60
2016,05,30,16,29,20.60
2016,05,30,16,30,20.60
2016,05,30,16,31,20.60
2016,05,30,16,32,20.60
2016,05,30,16,33,20.60
2016,05,30,16,34,20.70
2016,05,30,16,35,20.70
2016,05,30,16,36,20.70
2016,05,30,16,37,20.70
2016,05,30,16,38,20.70
2016,05,30,16,39,20.70
2016,05,30,16,40,20.70
2016,05,30,16,41,20.60
2016,05,30,16,42,20.50
2016,05,30,16,43,20.60
2016,05,30,16,44,20.60
2016,05,30,16,45,20.60
2016,05,30,16,46,20.70
2016,05,30,16,47,20.80
2016,05,30,16,48,20.80
2016,05,30,16,49,21.00
2016,05,30,16,50,21.00
2016,05,30,16,51,21.00
2016,05,30,16,52,21.10
2016,05,30,16,53,21.10
2016,05,30,16,54,21.10
2016,05,30,16,55,21.10
2016,05,30,16,56,21.10
2016,05,30,16,57,21.10
2016,05,30,16,58,21.10
2016,05,30,16,59,21.10
2016,05,30,17,00,21.00
2016,05,30,17,01,21.00
2016,05,30,17,02,20.90
2016,05,30,17,03,20.90
2016,05,30,17,04,20.90
2016,05,30,17,05,20.80
2016,05,30,17,06,20.80
2016,05,30,17,07,20.80
2016,05,30,17,08,20.90
2016,05,30,17,09,20.90
2016,05,30,17,10,20.90
2016,05,30,17,11,20.90
2016,05,30,17,12,20.90
2016,05,30,17,13,20.90
2016,05,30,17,14,20.90
2016,05,30,17,15,20.90
2016,05,30,17,16,20.90
2016,05,30,17,17,20.90
2016,05,30,17,18,20.90
2016,05,30,17,19,20.80
2016,05,30,17,20,20.80
2016,05,30,17,21,20.80
2016,05,30,17,22,20.80
2016,05,30,17,23,20.80
2016,05,30,17,24,20.80
2016,05,30,17,25,20.80
2016,05,30,17,26,20.80
2016,05,30,17,27,20.80
2016,05,30,17,28,20.80
2016,05,30,17,29,20.80
2016,05,30,17,30,20.70
2016,05,30,17,31,20.70
2016,05,30,17,32,20.70
2016,05,30,17,33,20.80